NOZ345 ENTC-UUWW

Flight info

Callsign NOZ345
Flight time N/A
Altitude 35000
Route ERPUG DCT RATUL M609 SDA P65 VANOS/K0857F350 P65 MOVIT/K0863F370 P65 UREPI/K0839F380 P65 ROMTA
Aircraft B738/M-SDE2E3FGHIRWXY/LB1

Departure

Time N/A
Airport Tromsø Airport (ENTC)

Arrival

Time 2026-05-06 17:57
Airport Vnukovo International Airport (UUWW)
Time Latitude Longitude Altitude Speed Heading
2026-05-06 16:44 61.52936 36.05064 35008 ft 455 kts 168°
2026-05-06 16:45 61.49793 36.06412 35002 ft 455 kts 168°
2026-05-06 16:45 61.43636 36.09046 35003 ft 455 kts 168°
2026-05-06 16:46 61.37441 36.11685 34999 ft 454 kts 168°
2026-05-06 16:46 61.31242 36.14315 35005 ft 454 kts 168°
2026-05-06 16:47 61.25044 36.16935 35002 ft 454 kts 169°
2026-05-06 16:47 61.18850 36.19542 35004 ft 454 kts 169°
2026-05-06 16:48 61.12654 36.22139 35003 ft 454 kts 169°
2026-05-06 16:48 61.06453 36.24728 35006 ft 454 kts 169°
2026-05-06 16:49 61.00259 36.27304 35003 ft 454 kts 169°
2026-05-06 16:49 60.94060 36.29872 34999 ft 454 kts 169°
2026-05-06 16:50 60.87856 36.32431 35004 ft 455 kts 169°
2026-05-06 16:50 60.81652 36.34981 35002 ft 455 kts 169°
2026-05-06 16:51 60.75443 36.37522 34995 ft 455 kts 169°
2026-05-06 16:51 60.69231 36.40055 35004 ft 455 kts 169°
2026-05-06 16:52 60.63017 36.42578 35004 ft 456 kts 169°
2026-05-06 16:52 60.56797 36.45095 35003 ft 456 kts 169°
2026-05-06 16:53 60.50576 36.47601 35000 ft 456 kts 169°
2026-05-06 16:53 60.44356 36.50098 35000 ft 456 kts 169°
2026-05-06 16:54 60.38172 36.52570 34996 ft 456 kts 169°
2026-05-06 16:54 60.31951 36.55048 34999 ft 456 kts 169°
2026-05-06 16:55 60.25730 36.57515 34997 ft 456 kts 169°
2026-05-06 16:55 60.19513 36.59972 35001 ft 455 kts 169°
2026-05-06 16:56 60.13292 36.62421 35004 ft 455 kts 169°
2026-05-06 16:56 60.07073 36.64859 35002 ft 455 kts 169°
2026-05-06 16:57 60.00859 36.67287 34999 ft 455 kts 169°
2026-05-06 16:57 59.94646 36.69705 34997 ft 455 kts 169°
2026-05-06 16:58 59.88435 36.72112 35005 ft 455 kts 169°
2026-05-06 16:58 59.82223 36.74511 34999 ft 455 kts 169°
2026-05-06 16:59 59.76012 36.76901 35001 ft 455 kts 169°
2026-05-06 16:59 59.69797 36.79283 34998 ft 455 kts 169°
2026-05-06 17:00 59.63586 36.81654 35006 ft 455 kts 169°
2026-05-06 17:00 59.57370 36.84018 35000 ft 455 kts 169°
2026-05-06 17:01 59.51157 36.86373 35004 ft 455 kts 169°
2026-05-06 17:01 59.44943 36.88719 34998 ft 455 kts 169°
2026-05-06 17:02 59.38725 36.91057 34999 ft 455 kts 169°
2026-05-06 17:02 59.32511 36.93386 34999 ft 455 kts 169°
2026-05-06 17:03 59.26332 36.95693 34996 ft 455 kts 169°
2026-05-06 17:03 59.20114 36.98005 35003 ft 455 kts 169°
2026-05-06 17:04 59.13898 37.00309 34997 ft 455 kts 169°
2026-05-06 17:04 59.07681 37.02604 35009 ft 455 kts 169°
2026-05-06 17:05 59.01462 37.04892 35002 ft 455 kts 169°
2026-05-06 17:05 58.95243 37.07171 35000 ft 455 kts 169°
2026-05-06 17:06 58.89027 37.09441 35003 ft 455 kts 169°
2026-05-06 17:06 58.82806 37.11704 34996 ft 455 kts 169°
2026-05-06 17:07 58.76586 37.13959 35004 ft 455 kts 169°
2026-05-06 17:07 58.70368 37.16204 35001 ft 455 kts 169°
2026-05-06 17:08 58.64151 37.18442 35003 ft 455 kts 169°
2026-05-06 17:08 58.57933 37.20671 35001 ft 455 kts 169°
2026-05-06 17:09 58.51715 37.22893 35004 ft 455 kts 169°
2026-05-06 17:09 58.45534 37.25093 34999 ft 455 kts 169°
2026-05-06 17:10 58.39315 37.27299 35007 ft 455 kts 169°
2026-05-06 17:10 58.33092 37.29498 34998 ft 455 kts 169°
2026-05-06 17:11 58.26871 37.31689 34999 ft 455 kts 169°
2026-05-06 17:11 58.20644 37.33874 35004 ft 455 kts 169°
2026-05-06 17:12 58.14411 37.36054 35001 ft 455 kts 169°
2026-05-06 17:12 58.08187 37.38223 35003 ft 455 kts 170°
2026-05-06 17:13 58.01951 37.40388 34996 ft 455 kts 170°
2026-05-06 17:13 57.95718 37.42544 35002 ft 455 kts 170°
2026-05-06 17:14 57.89484 37.44693 34999 ft 455 kts 170°
2026-05-06 17:14 57.84305 37.46473 35000 ft 455 kts 170°
2026-05-06 17:15 57.78078 37.48606 34999 ft 455 kts 170°
2026-05-06 17:15 57.71833 37.50738 34578 ft 461 kts 170°
2026-05-06 17:15 57.68683 37.51810 34012 ft 459 kts 170°
2026-05-06 17:16 57.65539 37.52879 33355 ft 459 kts 170°
2026-05-06 17:16 57.62395 37.53945 32739 ft 458 kts 170°
2026-05-06 17:16 57.59280 37.55000 32285 ft 453 kts 170°
2026-05-06 17:16 57.56193 37.56044 31803 ft 449 kts 170°
2026-05-06 17:17 57.53138 37.57075 31328 ft 445 kts 170°
2026-05-06 17:17 57.50107 37.58096 30858 ft 441 kts 170°
2026-05-06 17:17 57.47102 37.59107 30392 ft 437 kts 170°
2026-05-06 17:17 57.44121 37.60108 29931 ft 433 kts 170°
2026-05-06 17:18 57.41168 37.61098 29462 ft 429 kts 170°
2026-05-06 17:18 57.38243 37.62077 28997 ft 425 kts 170°
2026-05-06 17:18 57.35343 37.63046 28510 ft 422 kts 170°
2026-05-06 17:18 57.32465 37.64006 28061 ft 418 kts 170°
2026-05-06 17:19 57.29611 37.64957 27599 ft 415 kts 170°
2026-05-06 17:19 57.26783 37.65898 27136 ft 411 kts 170°
2026-05-06 17:19 57.23976 37.66830 26676 ft 408 kts 170°
2026-05-06 17:19 57.21192 37.67753 26222 ft 405 kts 170°
2026-05-06 17:20 57.18426 37.68669 25772 ft 402 kts 170°
2026-05-06 17:20 57.15711 37.69567 25325 ft 399 kts 170°
2026-05-06 17:20 57.13008 37.70456 25130 ft 389 kts 171°
2026-05-06 17:20 57.10348 37.70570 24926 ft 379 kts 189°
2026-05-06 17:21 57.07856 37.69237 24790 ft 369 kts 201°
2026-05-06 17:21 57.05452 37.67468 24653 ft 379 kts 202°
2026-05-06 17:21 57.02978 37.65566 24503 ft 391 kts 203°
2026-05-06 17:21 57.00459 37.63625 24297 ft 391 kts 203°
2026-05-06 17:22 56.97953 37.61715 24117 ft 388 kts 202°
2026-05-06 17:22 56.95464 37.59843 23933 ft 385 kts 202°
2026-05-06 17:22 56.92986 37.57996 23769 ft 383 kts 202°
2026-05-06 17:22 56.90557 37.56196 23602 ft 380 kts 202°
2026-05-06 17:23 56.88108 37.54390 23434 ft 379 kts 202°
2026-05-06 17:23 56.85640 37.52573 23263 ft 377 kts 202°
2026-05-06 17:23 56.83237 37.50806 23107 ft 376 kts 202°
2026-05-06 17:23 56.80806 37.49022 22942 ft 376 kts 202°
2026-05-06 17:24 56.78383 37.47245 22780 ft 376 kts 202°
2026-05-06 17:24 56.75960 37.45471 22611 ft 376 kts 202°
2026-05-06 17:24 56.73536 37.43698 22445 ft 375 kts 202°
2026-05-06 17:24 56.71109 37.41924 22280 ft 375 kts 202°
2026-05-06 17:25 56.68687 37.40159 22111 ft 375 kts 202°
2026-05-06 17:25 56.66262 37.38388 21936 ft 375 kts 202°
2026-05-06 17:25 56.63851 37.36576 21727 ft 376 kts 203°
2026-05-06 17:25 56.61438 37.34735 21518 ft 375 kts 203°
2026-05-06 17:26 56.59033 37.32902 21309 ft 374 kts 203°
2026-05-06 17:26 56.56633 37.31083 21100 ft 373 kts 203°
2026-05-06 17:26 56.54247 37.29282 20894 ft 371 kts 203°
2026-05-06 17:26 56.51861 37.27536 20688 ft 369 kts 201°
2026-05-06 17:27 56.49472 37.25892 20485 ft 367 kts 201°
2026-05-06 17:27 56.47087 37.24265 20281 ft 365 kts 201°
2026-05-06 17:27 56.44721 37.22642 20082 ft 363 kts 201°
2026-05-06 17:27 56.42367 37.21005 19913 ft 360 kts 202°
2026-05-06 17:28 56.40062 37.19343 19771 ft 358 kts 202°
2026-05-06 17:28 56.37766 37.17670 19630 ft 356 kts 202°
2026-05-06 17:28 56.35473 37.16004 19490 ft 354 kts 202°
2026-05-06 17:28 56.33191 37.14354 19353 ft 354 kts 202°
2026-05-06 17:29 56.30926 37.12724 19216 ft 354 kts 202°
2026-05-06 17:29 56.28621 37.11144 19074 ft 355 kts 199°
2026-05-06 17:29 56.26252 37.09824 18936 ft 356 kts 196°
2026-05-06 17:29 56.23867 37.08617 18794 ft 356 kts 195°
2026-05-06 17:30 56.21476 37.07429 18652 ft 357 kts 196°
2026-05-06 17:30 56.19083 37.06228 18510 ft 357 kts 196°
2026-05-06 17:30 56.16697 37.05015 18366 ft 357 kts 196°
2026-05-06 17:30 56.14311 37.03789 18223 ft 356 kts 196°
2026-05-06 17:31 56.11936 37.02562 18081 ft 355 kts 196°
2026-05-06 17:31 56.09565 37.01333 17939 ft 354 kts 196°
2026-05-06 17:31 56.07203 37.00109 17802 ft 352 kts 196°
2026-05-06 17:31 56.04848 36.98889 17652 ft 351 kts 196°
2026-05-06 17:32 56.02535 36.97693 17525 ft 350 kts 196°
2026-05-06 17:32 56.00199 36.96485 17383 ft 349 kts 196°
2026-05-06 17:32 55.97869 36.95283 17234 ft 348 kts 196°
2026-05-06 17:32 55.95544 36.94086 17107 ft 347 kts 196°
2026-05-06 17:33 55.93199 36.93114 16929 ft 347 kts 185°
2026-05-06 17:33 55.90795 36.93251 16724 ft 348 kts 175°
2026-05-06 17:33 55.88375 36.93645 16477 ft 350 kts 175°
2026-05-06 17:33 55.85957 36.94050 16225 ft 346 kts 175°
2026-05-06 17:34 55.83570 36.94426 15981 ft 342 kts 175°
2026-05-06 17:34 55.81211 36.94774 15744 ft 338 kts 175°
2026-05-06 17:34 55.78877 36.95101 15511 ft 336 kts 176°
2026-05-06 17:34 55.76567 36.95417 15278 ft 329 kts 176°
2026-05-06 17:35 55.74302 36.95726 15051 ft 323 kts 176°
2026-05-06 17:35 55.72080 36.96135 14738 ft 320 kts 172°
2026-05-06 17:35 55.69889 36.96751 14414 ft 317 kts 171°
2026-05-06 17:36 55.65560 36.98046 13759 ft 313 kts 171°
2026-05-06 17:36 55.63419 36.98657 13432 ft 311 kts 171°
2026-05-06 17:36 55.61290 36.99255 13109 ft 309 kts 171°
2026-05-06 17:36 55.59174 36.99813 12783 ft 307 kts 175°
2026-05-06 17:37 55.57046 36.99965 12465 ft 304 kts 180°
2026-05-06 17:37 55.54962 36.99917 12152 ft 302 kts 181°
2026-05-06 17:37 55.52839 36.99844 11830 ft 300 kts 181°
2026-05-06 17:37 55.50782 36.99793 11520 ft 299 kts 181°
2026-05-06 17:38 55.48712 36.99764 11204 ft 297 kts 180°
2026-05-06 17:38 55.46650 36.99751 10894 ft 295 kts 180°
2026-05-06 17:38 55.44601 36.99748 10590 ft 293 kts 180°
2026-05-06 17:38 55.42572 36.99747 10332 ft 290 kts 180°
2026-05-06 17:39 55.40570 36.99739 10066 ft 286 kts 182°
2026-05-06 17:39 55.38592 36.99482 9785 ft 284 kts 186°
2026-05-06 17:39 55.36639 36.99074 9502 ft 281 kts 187°
2026-05-06 17:39 55.34703 36.98659 9225 ft 279 kts 187°
2026-05-06 17:40 55.32778 36.98266 8956 ft 277 kts 187°
2026-05-06 17:40 55.30870 36.97892 8678 ft 275 kts 187°
2026-05-06 17:40 55.28967 36.97526 8403 ft 273 kts 186°
2026-05-06 17:40 55.27081 36.97212 8165 ft 270 kts 180°
2026-05-06 17:41 55.25279 36.97818 8130 ft 261 kts 163°
2026-05-06 17:41 55.23552 36.98761 8116 ft 260 kts 163°
2026-05-06 17:41 55.21826 36.99684 8113 ft 259 kts 163°
2026-05-06 17:41 55.20095 37.00594 8114 ft 260 kts 163°
2026-05-06 17:42 55.18363 37.01498 8114 ft 260 kts 164°
2026-05-06 17:42 55.16628 37.02399 8112 ft 260 kts 164°
2026-05-06 17:42 55.14935 37.03502 8092 ft 261 kts 147°
2026-05-06 17:42 55.13703 37.05757 8107 ft 257 kts 117°
2026-05-06 17:43 55.13263 37.08736 7993 ft 255 kts 88°
2026-05-06 17:43 55.13648 37.11715 7857 ft 251 kts 66°
2026-05-06 17:43 55.14435 37.14369 7721 ft 248 kts 60°
2026-05-06 17:43 55.15302 37.16961 7572 ft 247 kts 59°
2026-05-06 17:44 55.16173 37.19546 7433 ft 246 kts 59°
2026-05-06 17:44 55.17033 37.22134 7297 ft 246 kts 60°
2026-05-06 17:44 55.17883 37.24730 7145 ft 246 kts 60°
2026-05-06 17:44 55.18726 37.27329 7010 ft 245 kts 60°
2026-05-06 17:45 55.19563 37.29924 6870 ft 245 kts 60°
2026-05-06 17:45 55.20400 37.32522 6718 ft 245 kts 60°
2026-05-06 17:45 55.21323 37.35003 6567 ft 244 kts 44°
2026-05-06 17:45 55.22778 37.36430 6443 ft 240 kts 13°
2026-05-06 17:46 55.24424 37.36762 6331 ft 239 kts
2026-05-06 17:46 55.26088 37.36826 6189 ft 239 kts
2026-05-06 17:46 55.27752 37.36881 6050 ft 240 kts
2026-05-06 17:46 55.29424 37.36954 5912 ft 240 kts
2026-05-06 17:47 55.31098 37.37038 5772 ft 241 kts
2026-05-06 17:47 55.32755 37.37399 5625 ft 239 kts 13°
2026-05-06 17:47 55.34345 37.38151 5487 ft 233 kts 15°
2026-05-06 17:47 55.35875 37.38935 5370 ft 224 kts 15°
2026-05-06 17:48 55.37329 37.39675 5249 ft 212 kts 15°
2026-05-06 17:48 55.38709 37.40365 5114 ft 201 kts 15°
2026-05-06 17:48 55.40016 37.41012 4994 ft 189 kts 15°
2026-05-06 17:48 55.41242 37.41613 4880 ft 176 kts 15°
2026-05-06 17:49 55.42386 37.42169 4770 ft 168 kts 15°
2026-05-06 17:49 55.43514 37.42715 4704 ft 168 kts 14°
2026-05-06 17:49 55.44642 37.43258 4609 ft 168 kts 14°
2026-05-06 17:49 55.45748 37.43791 4524 ft 167 kts 14°
2026-05-06 17:50 55.46871 37.44331 4431 ft 167 kts 14°
2026-05-06 17:50 55.47991 37.44869 4334 ft 166 kts 14°
2026-05-06 17:50 55.49103 37.45404 4246 ft 166 kts 14°
2026-05-06 17:50 55.50218 37.45939 4151 ft 166 kts 14°
2026-05-06 17:51 55.51402 37.46510 4030 ft 186 kts 14°
2026-05-06 17:51 55.52665 37.47121 3818 ft 188 kts 14°
2026-05-06 17:51 55.53926 37.47732 3612 ft 187 kts 14°
2026-05-06 17:51 55.55174 37.48337 3408 ft 184 kts 15°
2026-05-06 17:52 55.56400 37.48932 3217 ft 182 kts 15°
2026-05-06 17:52 55.57625 37.49526 3044 ft 181 kts 14°
2026-05-06 17:52 55.58784 37.50078 2871 ft 170 kts 11°
2026-05-06 17:52 55.59897 37.49781 2740 ft 158 kts 335°
2026-05-06 17:53 55.60907 37.49039 2640 ft 161 kts 338°
2026-05-06 17:53 55.61948 37.48322 2517 ft 160 kts 338°
2026-05-06 17:53 55.62866 37.47280 2356 ft 159 kts 302°
2026-05-06 17:53 55.63013 37.45399 2347 ft 158 kts 263°
2026-05-06 17:54 55.62857 37.43468 2312 ft 157 kts 257°
2026-05-06 17:54 55.62572 37.41584 2165 ft 160 kts 253°
2026-05-06 17:54 55.62210 37.39733 1971 ft 158 kts 249°
2026-05-06 17:54 55.61810 37.37938 1765 ft 156 kts 248°
2026-05-06 17:55 55.61406 37.36151 1559 ft 156 kts 248°
2026-05-06 17:55 55.61003 37.34367 1348 ft 156 kts 249°
2026-05-06 17:55 55.60603 37.32594 1156 ft 154 kts 248°
2026-05-06 17:55 55.60216 37.30825 948 ft 154 kts 249°
2026-05-06 17:56 55.59817 37.29082 754 ft 151 kts 249°
2026-05-06 17:56 55.59454 37.27441 674 ft 133 kts 248°
2026-05-06 17:56 55.59147 37.26092 668 ft 103 kts 247°
2026-05-06 17:56 55.58965 37.25297 659 ft 58 kts 248°
2026-05-06 17:57 55.58837 37.24726 658 ft 42 kts 249°
2026-05-06 17:57 55.58732 37.24257 647 ft 39 kts 248°
2026-05-06 17:57 55.58664 37.23928 635 ft 20 kts 272°
2026-05-06 17:57 55.58729 37.23829 638 ft 11 kts 339°
2026-05-06 17:58 55.58800 37.23802 635 ft 11 kts 19°
2026-05-06 17:58 55.58845 37.23901 644 ft 10 kts 63°
2026-05-06 17:58 55.58879 37.24012 643 ft 10 kts 62°
2026-05-06 17:58 55.58910 37.24122 647 ft 10 kts 64°
2026-05-06 17:59 55.58941 37.24231 651 ft 11 kts 63°
2026-05-06 17:59 55.58981 37.24369 657 ft 13 kts 63°
2026-05-06 17:59 55.59017 37.24507 658 ft 13 kts 67°
2026-05-06 17:59 55.59057 37.24675 658 ft 16 kts 67°
2026-05-06 18:00 55.59099 37.24862 658 ft 16 kts 69°
2026-05-06 18:00 55.59141 37.25051 658 ft 16 kts 69°
2026-05-06 18:00 55.59182 37.25236 659 ft 16 kts 68°
2026-05-06 18:00 55.59214 37.25378 662 ft 20 kts 68°
2026-05-06 18:01 55.59265 37.25611 667 ft 20 kts 69°
2026-05-06 18:01 55.59315 37.25837 667 ft 19 kts 69°
2026-05-06 18:01 55.59365 37.26055 667 ft 19 kts 67°
2026-05-06 18:01 55.59414 37.26269 668 ft 19 kts 68°
2026-05-06 18:02 55.59462 37.26484 667 ft 19 kts 68°
2026-05-06 18:02 55.59515 37.26716 668 ft 21 kts 68°
2026-05-06 18:02 55.59592 37.26925 668 ft 20 kts 47°
2026-05-06 18:02 55.59687 37.27102 668 ft 20 kts 46°
2026-05-06 18:03 55.59779 37.27273 672 ft 19 kts 45°
2026-05-06 18:03 55.59868 37.27436 673 ft 18 kts 46°
2026-05-06 18:03 55.59949 37.27603 679 ft 17 kts 59°
2026-05-06 18:03 55.60030 37.27753 679 ft 16 kts 32°
2026-05-06 18:04 55.60111 37.27875 678 ft 13 kts 31°
2026-05-06 18:04 55.60193 37.27852 679 ft 12 kts 344°
2026-05-06 18:04 55.60271 37.27846 679 ft 10 kts
2026-05-06 18:04 55.60319 37.27893 676 ft 6 kts 63°
2026-05-06 18:05 55.60321 37.27945 679 ft 4 kts 92°
2026-05-06 18:05 55.60320 37.27985 679 ft 1 kts 94°